• In Hungary
  • List of Countries
  • For 7 days
  • Water Temperature
  • Satellite Maps
  • Weather Map
  • News
  • Weather Widgets
  • user-avatar
    Login

    Hourly Weather Stal'nivtsi

    Today, 19 October, Thursday

    Time Temperature Precipitation Wind Pressure Humidity
    00:00 +16°C° 0 mm 1 mps 747 mmHg 55%
    01:00 +16°C° 0 mm 1 mps 747 mmHg 56%
    02:00 +16°C° 0 mm 1 mps 746 mmHg 57%
    03:00 +15°C° 0 mm 1 mps 746 mmHg 58%
    04:00 +15°C° 0 mm 1 mps 746 mmHg 58%
    05:00 +15°C° 0 mm 1 mps 746 mmHg 59%
    06:00 +15°C° 0 mm 1 mps 746 mmHg 58%
    07:00 +15°C° 0 mm 1 mps 746 mmHg 58%
    08:00 +18°C° 0 mm 1 mps 746 mmHg 55%
    09:00 +19°C° 0 mm 1 mps 746 mmHg 50%
    10:00 +21°C° 0 mm 1 mps 746 mmHg 45%
    11:00 +22°C° 0 mm 1 mps 746 mmHg 40%
    12:00 +23°C° 0 mm 1 mps 746 mmHg 38%
    13:00 +24°C° 0 mm 1 mps 746 mmHg 36%
    14:00 +25°C° 0 mm 1 mps 745 mmHg 34%
    15:00 +24°C° 0 mm 1 mps 745 mmHg 38%
    16:00 +23°C° 0 mm 1 mps 745 mmHg 42%
    17:00 +22°C° 0 mm 1 mps 745 mmHg 46%
    18:00 +21°C° 0 mm 1 mps 745 mmHg 48%
    19:00 +18°C° 0 mm 0 mps 745 mmHg 50%
    20:00 +17°C° 0 mm 0 mps 745 mmHg 52%
    21:00 +18°C° 0 mm 1 mps 746 mmHg 53%
    22:00 +18°C° 0 mm 1 mps 746 mmHg 55%
    23:00 +16°C° 0 mm 1 mps 746 mmHg 57%

    Tomorrow, 20 October, Friday

    Time Temperature Precipitation Wind Pressure Humidity
    00:00 +16°C° 0 mm 1 mps 746 mmHg 59%
    01:00 +15°C° 0 mm 1 mps 746 mmHg 61%
    02:00 +14°C° 0 mm 1 mps 746 mmHg 64%
    03:00 +14°C° 0 mm 1 mps 746 mmHg 66%
    04:00 +14°C° 0 mm 1 mps 746 mmHg 68%
    05:00 +13°C° 0 mm 1 mps 746 mmHg 70%
    06:00 +13°C° 0 mm 1 mps 747 mmHg 70%
    07:00 +14°C° 0 mm 1 mps 747 mmHg 70%
    08:00 +14°C° 0 mm 1 mps 747 mmHg 70%
    09:00 +16°C° 0 mm 1 mps 747 mmHg 64%
    10:00 +18°C° 0 mm 1 mps 747 mmHg 59%
    11:00 +19°C° 0 mm 2 mps 747 mmHg 53%
    12:00 +21°C° 0 mm 1 mps 747 mmHg 50%
    13:00 +22°C° 0 mm 1 mps 747 mmHg 48%
    14:00 +23°C° 0 mm 1 mps 747 mmHg 45%
    15:00 +22°C° 0 mm 1 mps 747 mmHg 49%
    16:00 +21°C° 0 mm 1 mps 747 mmHg 52%
    17:00 +20°C° 0 mm 1 mps 747 mmHg 55%
    18:00 +19°C° 0 mm 1 mps 747 mmHg 59%
    19:00 +18°C° 0 mm 1 mps 748 mmHg 63%
    20:00 +16°C° 0 mm 1 mps 748 mmHg 67%
    21:00 +15°C° 0 mm 1 mps 748 mmHg 71%
    22:00 +15°C° 0 mm 1 mps 748 mmHg 75%
    23:00 +14°C° 0 mm 1 mps 748 mmHg 78%

    Day after tomorrow, 21 October, Saturday

    Time Temperature Precipitation Wind Pressure Humidity
    00:00 +13°C° 0 mm 1 mps 748 mmHg 81%
    01:00 +13°C° 0 mm 1 mps 748 mmHg 83%
    02:00 +13°C° 0 mm 1 mps 749 mmHg 86%
    03:00 +12°C° 0 mm 1 mps 748 mmHg 87%
    04:00 +12°C° 0 mm 1 mps 748 mmHg 88%
    05:00 +12°C° 0 mm 1 mps 748 mmHg 90%
    06:00 +12°C° 0 mm 1 mps 748 mmHg 88%
    07:00 +12°C° 0 mm 1 mps 748 mmHg 86%
    08:00 +12°C° 0 mm 1 mps 749 mmHg 84%
    09:00 +14°C° 0 mm 1 mps 748 mmHg 77%
    10:00 +16°C° 0 mm 1 mps 748 mmHg 70%
    11:00 +17°C° 0 mm 2 mps 748 mmHg 64%
    12:00 +18°C° 0 mm 2 mps 748 mmHg 60%
    13:00 +19°C° 0 mm 2 mps 747 mmHg 57%
    14:00 +19°C° 0 mm 2 mps 747 mmHg 54%
    15:00 +20°C° 0 mm 1 mps 746 mmHg 57%
    16:00 +19°C° 0 mm 1 mps 746 mmHg 60%
    17:00 +18°C° 0 mm 1 mps 746 mmHg 63%
    18:00 +18°C° 0 mm 1 mps 746 mmHg 65%
    19:00 +16°C° 0 mm 1 mps 746 mmHg 67%
    20:00 +16°C° 0 mm 1 mps 746 mmHg 69%
    21:00 +15°C° 0.4 mm 1 mps 746 mmHg 72%
    22:00 +15°C° 0.4 mm 1 mps 746 mmHg 75%
    23:00 +14°C° 0.4 mm 1 mps 746 mmHg 78%

    22 October, Sunday

    Time Temperature Precipitation Wind Pressure Humidity
    00:00 +14°C° 0.7 mm 1 mps 746 mmHg 82%
    01:00 +14°C° 0.7 mm 1 mps 746 mmHg 85%
    02:00 +13°C° 0.7 mm 1 mps 746 mmHg 88%
    03:00 +13°C° 0.2 mm 1 mps 746 mmHg 88%
    04:00 +13°C° 0.2 mm 1 mps 746 mmHg 89%
    05:00 +13°C° 0.2 mm 1 mps 746 mmHg 89%
    06:00 +13°C° 0 mm 2 mps 746 mmHg 88%
    07:00 +13°C° 0 mm 2 mps 746 mmHg 87%
    08:00 +13°C° 0 mm 2 mps 746 mmHg 86%
    09:00 +14°C° 0 mm 2 mps 747 mmHg 81%
    10:00 +15°C° 0 mm 2 mps 747 mmHg 76%
    11:00 +16°C° 0 mm 2 mps 747 mmHg 71%
    12:00 +16°C° 0.1 mm 2 mps 746 mmHg 70%
    13:00 +16°C° 0.1 mm 2 mps 746 mmHg 68%
    14:00 +16°C° 0.1 mm 2 mps 746 mmHg 67%
    15:00 +16°C° 0 mm 2 mps 746 mmHg 70%
    16:00 +15°C° 0 mm 2 mps 746 mmHg 73%
    17:00 +14°C° 0 mm 2 mps 746 mmHg 76%
    18:00 +14°C° 0 mm 2 mps 746 mmHg 80%
    19:00 +12°C° 0 mm 3 mps 746 mmHg 83%
    20:00 +11°C° 0 mm 3 mps 746 mmHg 87%
    21:00 +11°C° 0 mm 3 mps 746 mmHg 88%
    22:00 +11°C° 0 mm 3 mps 746 mmHg 89%
    23:00 +10°C° 0 mm 3 mps 746 mmHg 91%

    23 October, Monday

    Time Temperature Precipitation Wind Pressure Humidity
    00:00 +10°C° 0 mm 3 mps 746 mmHg 91%
    01:00 +10°C° 0 mm 3 mps 746 mmHg 92%
    02:00 +10°C° 0 mm 3 mps 745 mmHg 92%
    03:00 +10°C° 0 mm 4 mps 745 mmHg 92%
    04:00 +10°C° 0 mm 4 mps 745 mmHg 91%
    05:00 +11°C° 0 mm 4 mps 745 mmHg 91%
    06:00 +10°C° 0 mm 5 mps 745 mmHg 88%
    07:00 +10°C° 0 mm 5 mps 745 mmHg 85%
    08:00 +10°C° 0 mm 5 mps 745 mmHg 83%
    09:00 +11°C° 0 mm 6 mps 744 mmHg 82%
    10:00 +11°C° 0 mm 6 mps 744 mmHg 81%
    11:00 +12°C° 0 mm 7 mps 744 mmHg 80%
    12:00 +12°C° 0.1 mm 7 mps 744 mmHg 78%
    13:00 +12°C° 0.1 mm 7 mps 744 mmHg 77%
    14:00 +12°C° 0.1 mm 7 mps 744 mmHg 76%
    15:00 +12°C° 0 mm 7 mps 744 mmHg 73%
    16:00 +11°C° 0 mm 7 mps 744 mmHg 71%
    17:00 +11°C° 0 mm 7 mps 744 mmHg 68%
    18:00 +11°C° 0 mm 6 mps 745 mmHg 68%
    19:00 +11°C° 0 mm 6 mps 745 mmHg 67%
    20:00 +10°C° 0 mm 6 mps 745 mmHg 67%
    21:00 +10°C° 0.1 mm 6 mps 746 mmHg 68%
    22:00 +10°C° 0.1 mm 6 mps 746 mmHg 69%
    23:00 +10°C° 0.1 mm 6 mps 746 mmHg 70%

    24 October, Tuesday

    Time Temperature Precipitation Wind Pressure Humidity
    00:00 +9°C° 0.2 mm 6 mps 746 mmHg 70%
    01:00 +9°C° 0.2 mm 6 mps 747 mmHg 71%
    02:00 +9°C° 0.2 mm 6 mps 747 mmHg 71%
    03:00 +9°C° 0.1 mm 5 mps 747 mmHg 69%
    04:00 +8°C° 0.1 mm 5 mps 748 mmHg 68%
    05:00 +8°C° 0.1 mm 5 mps 748 mmHg 66%
    06:00 +8°C° 0 mm 5 mps 748 mmHg 64%
    07:00 +8°C° 0 mm 5 mps 749 mmHg 61%
    08:00 +8°C° 0 mm 5 mps 749 mmHg 58%
    09:00 +8°C° 0 mm 5 mps 749 mmHg 53%
    10:00 +9°C° 0 mm 5 mps 750 mmHg 48%
    11:00 +10°C° 0 mm 5 mps 750 mmHg 43%
    12:00 +10°C° 0 mm 5 mps 750 mmHg 41%
    13:00 +12°C° 0 mm 5 mps 750 mmHg 39%
    14:00 +12°C° 0 mm 5 mps 750 mmHg 36%
    15:00 +12°C° 0 mm 4 mps 750 mmHg 38%
    16:00 +11°C° 0 mm 4 mps 750 mmHg 39%
    17:00 +10°C° 0 mm 3 mps 750 mmHg 40%
    18:00 +10°C° 0 mm 4 mps 751 mmHg 41%
    19:00 +8°C° 0 mm 4 mps 751 mmHg 41%
    20:00 +8°C° 0 mm 4 mps 752 mmHg 42%
    21:00 +7°C° 0 mm 4 mps 752 mmHg 42%
    22:00 +7°C° 0 mm 4 mps 752 mmHg 42%
    23:00 +6°C° 0 mm 4 mps 753 mmHg 42%
    Show more